TimeEDT,TemperatureF,Dew PointF,Humidity,Sea Level PressureIn,VisibilityMPH,Wind Direction,Wind SpeedMPH,Gust SpeedMPH,PrecipitationIn,Events,Conditions,WindDirDegrees,DateUTC
12:15 AM,64.4,62.6,94,29.91,5.0,Calm,Calm,-,N/A,,Overcast,0,2013-09-26 04:15:00
12:35 AM,63.9,62.6,96,29.90,4.0,Calm,Calm,-,N/A,,Overcast,0,2013-09-26 04:35:00
12:55 AM,64.0,62.8,96,29.90,5.0,Calm,Calm,-,N/A,,Overcast,0,2013-09-26 04:55:00
1:15 AM,63.9,62.6,96,29.89,5.0,Calm,Calm,-,N/A,,Overcast,0,2013-09-26 05:15:00
1:35 AM,64.0,62.8,96,29.89,5.0,Calm,Calm,-,N/A,,Overcast,0,2013-09-26 05:35:00
1:55 AM,64.0,62.8,96,29.88,5.0,Calm,Calm,-,N/A,,Overcast,0,2013-09-26 05:55:00
2:15 AM,63.9,62.6,96,29.88,5.0,Calm,Calm,-,N/A,,Overcast,0,2013-09-26 06:15:00
2:35 AM,64.0,62.8,96,29.88,5.0,Calm,Calm,-,N/A,,Overcast,0,2013-09-26 06:35:00
2:55 AM,64.0,62.8,96,29.88,5.0,Calm,Calm,-,N/A,,Light Drizzle,0,2013-09-26 06:55:00
3:15 AM,63.9,62.8,96,29.88,4.0,Calm,Calm,-,N/A,,Overcast,0,2013-09-26 07:15:00
3:35 AM,63.7,62.8,97,29.88,3.0,Calm,Calm,-,N/A,,Overcast,0,2013-09-26 07:35:00
3:55 AM,63.9,62.8,96,29.89,5.0,NNW,3.5,-,N/A,,Overcast,340,2013-09-26 07:55:00
4:15 AM,63.7,62.6,96,29.88,5.0,Calm,Calm,-,N/A,,Overcast,0,2013-09-26 08:15:00
4:35 AM,63.5,62.4,96,29.88,5.0,Calm,Calm,-,N/A,,Overcast,0,2013-09-26 08:35:00
4:55 AM,63.1,61.9,96,29.88,5.0,Calm,Calm,-,N/A,,Overcast,0,2013-09-26 08:55:00
5:15 AM,62.6,61.2,95,29.88,5.0,NNW,3.5,-,N/A,,Mostly Cloudy,330,2013-09-26 09:15:00
5:35 AM,61.7,60.3,95,29.89,5.0,NNW,3.5,-,N/A,,Clear,330,2013-09-26 09:35:00
5:55 AM,61.0,59.7,96,29.89,5.0,Calm,Calm,-,N/A,,Scattered Clouds,0,2013-09-26 09:55:00
6:15 AM,61.0,59.9,96,29.90,5.0,Calm,Calm,-,N/A,,Mostly Cloudy,0,2013-09-26 10:15:00
6:35 AM,60.4,59.4,96,29.90,4.0,Calm,Calm,-,N/A,,Mostly Cloudy,0,2013-09-26 10:35:00
6:55 AM,61.2,60.1,96,29.91,5.0,Calm,Calm,-,N/A,,Overcast,0,2013-09-26 10:55:00
7:15 AM,61.2,60.1,96,29.91,4.0,Calm,Calm,-,N/A,,Mostly Cloudy,0,2013-09-26 11:15:00
7:35 AM,61.2,60.1,96,29.91,4.0,Calm,Calm,-,N/A,,Clear,0,2013-09-26 11:35:00
7:55 AM,61.7,60.4,96,29.92,4.0,Calm,Calm,-,N/A,,Clear,0,2013-09-26 11:55:00
8:15 AM,61.9,60.4,95,29.92,5.0,Calm,Calm,-,N/A,,Clear,0,2013-09-26 12:15:00
8:35 AM,63.0,59.9,90,29.93,7.0,North,3.5,-,N/A,,Clear,10,2013-09-26 12:35:00
8:55 AM,64.2,59.7,85,29.93,10.0,North,4.6,-,N/A,,Clear,360,2013-09-26 12:55:00
9:15 AM,65.8,59.5,80,29.95,10.0,NNE,4.6,-,N/A,,Clear,30,2013-09-26 13:15:00
9:35 AM,67.3,59.0,75,29.95,10.0,NNE,4.6,-,N/A,,Clear,30,2013-09-26 13:35:00
9:55 AM,68.5,58.6,71,29.95,10.0,North,5.8,-,N/A,,Clear,10,2013-09-26 13:55:00
10:15 AM,69.6,58.3,67,29.96,10.0,NNE,5.8,-,N/A,,Clear,30,2013-09-26 14:15:00
10:35 AM,70.9,58.1,64,29.96,10.0,North,8.1,-,N/A,,Clear,360,2013-09-26 14:35:00
10:55 AM,72.1,58.1,61,29.96,10.0,NNW,5.8,-,N/A,,Clear,340,2013-09-26 14:55:00
11:15 AM,73.6,55.6,53,29.97,10.0,NNE,4.6,-,N/A,,Scattered Clouds,30,2013-09-26 15:15:00
11:35 AM,75.0,56.3,52,29.96,10.0,NNW,4.6,-,N/A,,Scattered Clouds,340,2013-09-26 15:35:00
11:55 AM,76.1,56.1,50,29.96,10.0,North,5.8,-,N/A,,Mostly Cloudy,360,2013-09-26 15:55:00
12:15 PM,75.9,56.1,50,29.95,10.0,North,9.2,-,N/A,,Mostly Cloudy,350,2013-09-26 16:15:00
12:35 PM,77.2,53.4,44,29.96,10.0,North,9.2,-,N/A,,Scattered Clouds,10,2013-09-26 16:35:00
12:55 PM,77.7,52.9,42,29.95,10.0,NNE,11.5,-,N/A,,Scattered Clouds,30,2013-09-26 16:55:00
1:15 PM,77.7,52.9,42,29.95,10.0,NNE,5.8,17.3,N/A,,Scattered Clouds,30,2013-09-26 17:15:00
1:35 PM,78.1,52.0,40,29.95,10.0,NE,8.1,-,N/A,,Clear,40,2013-09-26 17:35:00
1:55 PM,77.9,50.2,38,29.93,10.0,ENE,6.9,-,N/A,,Scattered Clouds,60,2013-09-26 17:55:00
2:15 PM,79.3,50.9,37,29.93,10.0,North,8.1,-,N/A,,Scattered Clouds,10,2013-09-26 18:15:00
2:35 PM,77.2,52.9,43,29.93,10.0,NNW,8.1,17.3,N/A,,Scattered Clouds,340,2013-09-26 18:35:00
2:55 PM,77.9,51.3,39,29.93,10.0,North,12.7,-,N/A,,Scattered Clouds,350,2013-09-26 18:55:00
3:15 PM,79.0,50.9,37,29.93,10.0,North,9.2,-,N/A,,Scattered Clouds,10,2013-09-26 19:15:00
3:35 PM,78.8,50.7,37,29.93,10.0,NNE,6.9,18.4,N/A,,Scattered Clouds,20,2013-09-26 19:35:00
3:55 PM,79.0,49.3,35,29.93,10.0,NNE,10.4,-,N/A,,Clear,20,2013-09-26 19:55:00
4:15 PM,79.0,46.0,31,29.93,10.0,NNE,6.9,-,N/A,,Clear,30,2013-09-26 20:15:00
4:35 PM,79.2,47.7,33,29.92,10.0,North,8.1,-,N/A,,Clear,10,2013-09-26 20:35:00
4:55 PM,79.2,45.1,30,29.93,10.0,North,10.4,-,N/A,,Clear,360,2013-09-26 20:55:00
5:15 PM,78.4,44.8,30,29.93,10.0,North,9.2,-,N/A,,Clear,10,2013-09-26 21:15:00
5:35 PM,77.9,45.0,31,29.94,10.0,NNE,5.8,-,N/A,,Clear,30,2013-09-26 21:35:00
5:55 PM,75.2,47.8,38,29.95,10.0,North,4.6,-,N/A,,Clear,10,2013-09-26 21:55:00
6:15 PM,74.8,49.3,40,29.95,10.0,North,3.5,-,N/A,,Scattered Clouds,10,2013-09-26 22:15:00
6:35 PM,75.0,49.3,40,29.96,10.0,Calm,Calm,-,N/A,,Overcast,0,2013-09-26 22:35:00
6:55 PM,73.2,50.9,45,29.96,10.0,Calm,Calm,-,N/A,,Overcast,0,2013-09-26 22:55:00
7:15 PM,71.2,52.0,51,29.97,10.0,NNE,4.6,-,N/A,,Mostly Cloudy,20,2013-09-26 23:15:00
7:35 PM,69.3,53.2,57,29.97,10.0,North,3.5,-,N/A,,Scattered Clouds,360,2013-09-26 23:35:00
7:55 PM,68.0,54.5,62,29.98,10.0,North,4.6,-,N/A,,Scattered Clouds,360,2013-09-26 23:55:00
8:15 PM,66.9,54.7,65,29.99,10.0,North,3.5,-,N/A,,Scattered Clouds,360,2013-09-27 00:15:00
8:35 PM,66.2,55.4,68,30.00,10.0,Calm,Calm,-,N/A,,Scattered Clouds,0,2013-09-27 00:35:00
8:55 PM,64.8,55.6,72,30.00,10.0,Calm,Calm,-,N/A,,Scattered Clouds,0,2013-09-27 00:55:00
9:15 PM,62.8,55.9,78,30.01,10.0,Calm,Calm,-,N/A,,Clear,0,2013-09-27 01:15:00
9:35 PM,61.2,56.1,83,30.01,10.0,Calm,Calm,-,N/A,,Clear,0,2013-09-27 01:35:00
9:55 PM,59.5,56.3,89,30.02,10.0,Calm,Calm,-,N/A,,Clear,0,2013-09-27 01:55:00
10:15 PM,59.0,55.4,88,30.02,10.0,Calm,Calm,-,N/A,,Clear,0,2013-09-27 02:15:00
10:35 PM,58.5,55.9,91,30.02,10.0,Calm,Calm,-,N/A,,Clear,0,2013-09-27 02:35:00
10:55 PM,57.9,55.2,91,30.03,10.0,Calm,Calm,-,N/A,,Clear,0,2013-09-27 02:55:00
11:15 PM,57.7,55.0,91,30.03,10.0,Calm,Calm,-,N/A,,Clear,0,2013-09-27 03:15:00
11:35 PM,57.6,55.4,92,30.03,10.0,Calm,Calm,-,N/A,,Clear,0,2013-09-27 03:35:00
11:55 PM,57.2,55.4,94,30.03,10.0,Calm,Calm,-,N/A,,Clear,0,2013-09-27 03:55:00